Theta_e
303 303 303 304 304 304 304 304 304 305 304 304 304 304 304 304 304 305 305 304 304 303 303 303 302 302 301 301 301 300 300 300 300 300 299 299 300 300 300 299 298 299 299 299 298 298 298 298 298 298 299 298 298 298 298 298 298 297 297 297 297 298 298 297 295 294 285 287 287 284 282 282 281 283 285 285 285 285 285 287 289 291 293 294 293
302 303 303 303 303 303 304 304 304 304 304 304 303 303 303 303 304 304 304 304 304 303 302 303 302 302 301 300 300 300 300 299 299 299 298 298 299 299 299 298 297 298 298 298 297 296 297 297 297 297 297 296 297 297 297 297 297 296 295 295 295 296 297 296 296 296 289 284 284 283 281 281 281 282 284 284 284 285 286 286 287 288 290 292 292
303 303 303 302 302 303 303 303 304 303 303 303 303 303 303 303 304 303 303 303 303 303 302 302 302 301 300 300 300 299 299 299 299 298 298 298 298 298 298 298 297 297 296 297 297 296 295 295 296 297 296 295 295 296 297 296 296 295 295 294 294 295 296 296 296 295 292 285 284 281 280 280 281 280 282 284 284 285 285 285 286 286 286 288 290
302 302 302 302 302 302 302 303 303 303 302 303 303 303 303 303 304 303 303 303 302 302 302 302 301 300 300 299 299 299 299 299 298 298 298 298 298 298 297 297 297 297 297 296 296 295 294 294 295 296 295 293 294 294 295 295 295 295 295 294 294 294 295 295 296 296 293 286 282 282 281 279 280 280 280 282 282 283 284 284 284 284 285 286 288
302 302 301 301 301 301 302 302 302 302 302 303 303 303 303 303 303 302 303 302 302 302 301 301 300 300 299 299 299 299 299 298 298 297 297 298 298 298 297 296 296 296 296 297 295 296 295 294 295 295 294 293 293 293 293 293 294 294 294 295 294 294 294 294 294 294 292 288 283 282 281 280 281 279 279 279 281 282 282 282 283 283 284 284 286
301 301 301 300 301 301 301 302 301 302 302 302 303 303 303 303 303 303 302 302 302 301 301 300 300 299 299 299 299 299 299 298 298 297 297 297 297 297 297 296 296 295 296 296 296 296 295 294 294 295 294 293 293 293 293 293 293 293 294 294 294 293 293 293 293 292 292 289 284 280 280 279 278 278 278 279 279 279 280 281 281 281 281 281 281
300 300 300 300 300 301 301 301 302 302 302 302 303 303 303 303 302 302 302 302 301 301 300 300 299 299 299 299 299 299 298 298 297 297 297 296 296 296 296 295 295 295 295 295 295 295 295 294 294 294 293 293 293 293 293 293 292 293 293 294 294 293 292 292 291 291 290 288 284 282 280 280 279 277 278 279 280 280 279 278 278 280 281 281 280
299 299 300 300 300 300 301 301 301 302 302 302 302 302 302 302 302 302 301 300 300 300 300 299 299 299 299 299 299 299 298 297 297 296 296 295 295 294 294 294 294 294 293 293 294 294 294 293 293 293 293 293 293 294 294 293 292 292 293 293 293 292 292 291 290 289 289 288 284 282 280 279 278 279 277 277 277 278 279 279 277 278 278 280 280
299 299 299 299 300 301 301 301 301 301 301 301 301 301 301 301 301 301 300 300 300 300 300 299 299 298 297 298 297 297 297 296 296 295 295 294 294 293 293 293 293 293 293 293 293 293 293 293 293 293 293 290 290 291 291 291 293 291 292 292 292 292 291 291 290 289 288 287 285 282 280 279 278 277 275 274 275 276 278 279 279 279 278 278 278
298 298 299 299 300 300 301 301 300 300 300 300 300 300 300 300 300 300 300 300 299 299 299 299 298 297 296 296 296 296 295 296 293 291 292 294 294 294 293 293 293 293 292 292 292 292 292 292 292 289 288 288 287 288 289 289 289 291 292 292 291 291 291 290 289 288 288 286 285 281 280 279 278 277 276 276 277 278 277 278 277 278 277 276 276
297 298 298 299 299 300 300 299 299 299 299 299 299 299 299 299 299 298 298 298 298 298 298 298 297 297 297 296 295 295 295 294 291 292 292 291 293 293 293 293 293 292 292 292 291 291 291 291 291 289 288 287 288 287 288 288 288 288 289 289 290 291 290 289 289 289 287 286 286 283 281 280 279 279 278 277 277 277 277 278 278 277 275 274 273
297 297 298 298 298 298 298 298 297 297 298 298 298 298 298 298 297 297 297 297 297 297 297 296 296 296 296 296 295 295 294 291 291 291 292 292 291 292 293 292 292 292 292 291 291 291 291 290 290 290 289 289 289 288 287 287 287 287 287 288 288 289 290 291 289 288 287 287 286 284 283 282 280 279 278 277 276 277 277 277 277 276 275 275 275
296 297 297 296 296 297 297 296 296 296 297 297 297 297 296 296 296 296 296 297 296 295 296 296 295 296 295 295 294 294 294 292 291 291 291 291 291 290 292 292 292 291 291 291 291 291 291 290 289 288 288 285 286 288 287 287 286 286 286 286 286 287 289 289 290 290 290 287 287 285 284 283 281 280 280 278 278 276 276 275 276 276 276 276 276
295 295 295 295 296 296 295 295 295 296 296 296 295 295 295 295 296 296 296 296 295 295 295 295 295 295 294 294 294 294 294 291 291 291 290 291 291 291 291 291 291 291 291 290 290 290 290 289 288 287 287 286 286 286 286 286 286 286 286 286 286 285 286 287 287 287 288 288 287 286 286 285 283 282 280 280 277 276 276 275 276 275 275 275 277
294 295 294 294 294 294 294 294 294 294 295 294 294 294 294 294 294 295 295 294 294 293 294 293 293 293 293 293 293 292 293 291 291 291 291 291 291 291 290 290 290 289 289 289 289 289 289 289 288 288 287 285 286 285 285 285 285 285 285 285 285 285 285 285 285 286 286 286 285 286 286 285 285 282 280 280 279 278 278 276 276 275 274 273 271
293 293 293 293 293 293 293 293 293 294 294 294 293 293 293 293 293 293 293 293 293 293 294 293 293 292 293 292 292 291 292 290 290 290 290 291 291 290 290 290 290 289 289 289 288 288 288 288 287 287 287 286 285 286 285 285 284 284 284 284 285 285 285 285 286 286 286 286 285 284 284 283 284 281 280 279 279 278 277 276 275 273 271 271 270
292 292 292 293 293 293 293 293 293 293 293 293 293 293 293 292 293 293 292 293 293 292 292 292 293 292 292 291 291 291 291 290 289 289 290 290 290 290 290 290 290 289 289 288 287 287 287 287 287 286 286 285 285 286 286 284 283 283 283 283 283 284 283 284 285 285 285 284 283 282 282 283 283 283 282 282 279 277 275 273 272 272 270 269 269
291 291 292 292 293 293 293 293 292 292 292 292 292 292 292 292 292 292 292 292 291 292 291 291 291 291 290 290 290 290 290 289 288 289 289 290 289 290 290 289 289 289 289 288 287 287 286 285 285 285 284 284 285 286 286 284 282 282 282 282 282 282 283 282 281 281 283 283 282 282 282 282 283 283 283 282 281 279 275 272 273 272 270 270 267
289 290 291 292 292 292 292 292 292 291 291 291 291 291 291 291 291 291 290 290 290 291 290 290 290 290 289 289 287 288 289 288 288 288 289 289 289 289 289 289 288 288 288 287 287 286 286 285 284 284 284 284 285 286 286 285 283 282 282 281 281 280 281 280 278 278 279 278 279 279 279 280 281 280 280 281 280 278 276 275 273 271 270 270 269
287 289 290 290 290 290 290 290 290 290 290 290 290 290 291 290 290 289 289 290 289 290 289 289 288 289 289 288 288 288 288 289 288 288 288 289 289 288 288 287 286 286 287 286 286 285 285 284 284 285 285 285 285 285 285 286 283 282 282 281 280 280 281 279 279 278 278 278 278 278 278 279 279 279 279 279 278 277 275 275 274 273 271 271 269
285 288 288 288 288 288 289 289 288 289 289 288 289 289 289 289 289 288 288 288 288 288 288 288 287 287 288 287 287 287 287 287 287 287 287 288 289 288 287 286 286 286 286 286 286 285 284 283 283 284 285 285 285 285 285 286 285 283 282 281 281 282 282 278 278 278 277 277 276 276 276 276 276 277 277 277 276 275 275 275 274 274 273 271 269
284 285 285 285 284 285 285 285 286 286 287 287 287 288 288 288 288 288 288 287 286 286 286 286 286 286 286 286 285 285 285 284 285 285 286 287 288 288 287 287 287 286 285 285 285 285 284 283 282 282 284 284 284 285 285 285 285 284 283 283 283 283 281 278 277 276 276 275 274 273 273 273 273 274 274 274 273 273 273 273 274 274 274 274 272
282 282 282 282 282 282 282 282 282 283 284 285 285 286 286 286 286 286 286 285 285 285 285 285 284 284 284 284 284 283 283 283 283 284 284 285 286 287 288 288 288 287 285 284 285 285 285 283 282 282 282 283 284 285 285 285 284 284 285 284 283 283 280 276 275 274 273 272 272 271 271 271 271 272 271 271 271 271 270 270 270 271 270 269 270
280 280 279 279 279 280 280 280 281 281 282 283 284 284 283 283 284 284 284 284 284 284 284 283 283 282 282 283 283 282 282 282 282 282 283 283 284 285 286 287 287 286 286 285 285 285 284 283 282 282 282 282 283 284 284 284 283 284 285 284 282 281 276 275 273 273 271 271 270 270 270 270 270 270 269 269 268 268 267 267 267 267 266 266 266
277 277 277 276 276 277 278 278 278 279 280 281 281 282 282 282 282 282 282 282 282 282 282 282 281 281 281 281 281 281 281 281 281 281 281 281 282 283 284 284 285 286 285 286 286 286 285 285 283 282 282 282 282 283 283 283 284 284 284 284 281 279 275 274 273 272 271 270 270 269 269 269 269 268 268 267 266 265 264 264 263 263 263 263 262
274 274 274 274 274 275 277 277 277 277 277 278 278 279 279 280 280 280 280 279 279 279 279 279 279 279 279 279 279 279 279 279 279 280 280 280 281 281 282 282 282 283 283 283 284 284 284 285 283 282 282 282 281 281 281 282 283 283 283 283 280 277 274 273 272 272 271 271 270 269 268 269 267 266 266 266 265 264 263 262 262 261 262 261 261
273 273 273 273 274 274 274 274 275 276 276 276 277 276 277 277 277 276 277 277 277 277 277 277 277 277 277 277 277 277 277 278 278 278 278 278 279 279 279 280 281 281 281 281 281 282 282 283 282 281 281 281 281 281 281 281 281 281 281 281 279 276 274 273 272 271 271 271 270 269 268 266 265 264 264 264 263 264 263 262 262 261 262 261 260
271 271 271 272 272 272 272 271 273 274 274 274 275 275 275 275 275 275 274 275 275 275 276 275 275 275 275 275 276 276 276 277 276 277 277 277 277 278 278 278 278 278 278 279 280 280 280 281 281 281 280 280 279 279 279 279 279 279 280 280 278 276 274 274 274 273 272 272 270 268 264 264 263 264 264 263 263 263 264 263 262 261 261 260 259
270 270 271 271 271 271 271 271 271 272 272 273 274 274 274 274 274 274 275 276 276 275 275 275 276 275 275 275 274 273 275 275 275 278 277 278 277 277 277 277 278 278 279 279 279 278 278 278 278 278 278 277 277 277 277 277 277 278 278 278 276 273 272 272 271 271 271 270 268 265 263 264 263 264 263 263 262 262 263 262 262 260 261 262 260
269 269 269 270 270 270 270 270 270 271 271 272 273 273 274 274 274 274 273 276 276 276 276 274 275 275 274 274 275 273 273 275 277 277 278 278 278 278 279 279 279 279 280 280 280 277 276 276 276 276 275 275 275 275 275 276 275 276 276 276 274 272 272 272 271 271 270 269 267 264 264 263 263 263 262 262 262 262 262 262 261 261 260 261 260
269 268 268 268 268 269 269 269 269 270 270 270 270 271 272 272 273 273 273 273 273 274 274 275 276 276 275 273 274 276 276 277 277 276 276 276 277 277 277 278 278 278 279 279 278 277 275 275 274 275 274 275 274 274 275 275 275 275 274 275 272 271 271 271 271 270 268 267 266 265 264 264 263 263 262 262 261 261 261 261 261 261 261 261 260
267 267 267 267 267 267 268 268 267 267 268 268 268 268 269 269 270 272 272 271 271 272 272 273 274 274 274 273 272 272 274 276 276 275 275 275 275 276 276 277 277 278 278 279 276 275 275 274 274 274 274 274 274 274 274 275 274 274 273 272 270 271 270 270 271 269 268 266 265 265 264 264 264 263 262 261 260 260 259 259 259 260 260 261 260
265 265 266 266 267 267 266 266 266 267 266 266 266 267 266 266 266 267 269 271 270 269 269 270 270 271 271 271 272 272 272 273 274 274 274 275 275 275 276 277 277 277 278 276 275 274 275 274 274 274 274 273 274 274 274 274 274 274 273 272 271 271 271 271 271 269 267 266 266 265 265 264 264 263 262 260 259 259 259 259 260 260 260 259 259
264 264 264 265 265 265 266 265 265 265 265 265 265 265 265 265 264 265 265 266 268 268 269 268 268 268 268 269 268 269 270 271 272 273 273 274 274 275 275 274 276 277 276 274 274 273 274 273 273 273 274 274 274 274 274 274 273 273 271 271 270 271 271 271 270 267 266 266 265 265 264 264 263 262 261 260 260 259 259 259 259 258 258 259 258
264 264 263 263 264 264 264 264 264 264 264 264 264 264 264 264 264 263 263 263 263 263 264 265 266 267 266 265 266 267 267 268 271 271 271 272 273 273 273 272 272 272 273 273 272 272 272 272 272 272 273 273 274 274 273 274 273 272 271 270 270 269 269 268 267 267 266 265 265 264 264 263 263 263 261 260 259 259 258 258 258 258 258 258 258
263 263 263 262 262 263 263 263 263 263 263 262 263 263 263 263 262 262 263 262 262 262 262 263 264 264 265 264 265 265 266 266 268 268 268 270 271 271 268 268 268 269 270 270 271 270 271 272 272 272 272 272 273 273 273 273 272 272 272 270 269 268 267 267 266 266 266 265 264 264 263 263 263 262 262 261 260 259 259 258 258 258 258 258 258
262 262 262 262 262 262 262 262 262 262 262 262 262 262 262 262 262 262 262 261 261 261 261 262 262 263 264 263 264 264 265 265 266 266 266 266 268 266 266 266 266 267 267 267 267 268 269 270 272 272 272 272 272 272 273 272 272 271 270 270 269 268 267 267 266 266 265 264 264 263 263 263 262 262 261 260 260 260 259 259 258 258 258 257 257
261 261 261 262 261 261 261 261 261 261 261 261 261 261 261 261 261 261 261 260 260 260 260 260 261 260 260 260 262 263 263 264 265 264 264 264 263 263 263 264 264 264 264 265 265 265 266 268 269 270 271 272 271 272 272 272 271 271 270 269 268 267 267 267 266 265 265 265 264 263 263 262 262 262 261 260 260 259 259 258 258 258 257 256 256
260 260 260 260 261 261 261 260 260 260 260 260 260 260 259 260 260 260 260 260 260 260 260 260 260 260 259 260 260 262 262 261 262 261 261 261 262 262 262 262 262 262 262 263 263 263 263 264 265 266 267 269 270 271 271 271 271 269 269 268 267 267 266 265 265 265 264 264 264 263 263 262 263 262 262 261 260 260 259 258 258 257 256 256 256
259 259 259 260 259 259 260 259 259 259 259 259 259 259 259 259 259 258 259 259 258 259 259 259 259 259 259 259 259 260 259 259 260 260 259 259 260 260 260 260 260 260 260 260 261 261 261 262 263 263 264 265 267 268 269 269 269 268 268 267 266 266 265 265 264 264 264 264 264 263 263 262 262 262 262 261 261 260 258 258 257 257 256 256 256
258 259 258 258 258 258 258 259 258 258 258 258 258 258 258 258 258 258 258 258 258 258 258 258 258 258 258 258 259 259 258 257 258 258 258 258 259 259 259 259 259 259 259 259 260 260 260 261 261 262 263 263 264 265 266 267 267 267 267 266 266 265 265 265 264 264 264 263 263 263 263 262 262 261 260 261 261 260 259 258 257 257 256 256 256
257 258 258 258 258 258 258 257 258 256 257 257 257 257 257 257 257 257 257 257 257 257 257 257 257 257 257 257 258 258 257 257 258 257 258 258 258 258 258 258 258 258 258 258 259 259 259 260 260 261 261 261 262 262 263 264 265 266 266 266 265 264 264 264 264 263 263 263 263 262 262 262 261 261 260 260 260 259 258 257 256 256 256 256 255
256 257 257 257 257 257 257 256 257 256 256 256 256 256 256 256 256 256 256 256 256 256 256 256 256 257 256 256 257 256 256 256 256 256 256 257 257 257 257 257 257 257 258 258 258 259 259 258 259 260 260 260 261 261 261 262 263 264 265 265 265 264 264 264 264 263 263 262 262 261 261 260 260 260 260 259 259 258 257 257 256 256 256 256 255
256 256 256 256 256 256 256 257 256 256 256 255 255 255 255 255 255 255 255 255 255 255 255 255 255 255 255 256 256 255 255 255 255 255 255 255 255 256 256 256 256 256 256 257 257 258 257 257 258 258 259 259 260 260 260 261 262 262 263 264 264 263 264 264 263 263 262 262 262 261 261 260 259 260 258 258 259 258 257 256 256 256 255 255 255
255 255 255 255 255 255 255 255 255 255 255 255 255 255 255 255 255 255 255 255 254 255 255 255 255 254 254 254 254 254 254 254 254 254 254 254 254 254 255 255 255 255 255 256 256 256 256 256 256 256 256 257 258 259 259 260 260 261 262 262 263 263 263 263 264 264 263 262 261 261 260 259 259 259 258 258 258 257 257 256 256 254 255 254 253
254 254 254 254 254 254 254 254 254 254 254 254 254 254 254 254 254 254 254 254 254 254 254 254 254 254 253 253 253 253 253 253 253 253 253 253 253 253 254 254 254 254 254 255 255 255 255 255 255 255 255 256 256 257 258 258 259 259 259 260 261 262 263 264 264 262 262 261 261 260 259 259 258 258 257 258 257 257 257 256 256 255 255 253 253
253 253 253 253 253 253 253 253 254 253 253 253 253 253 253 253 253 253 253 253 253 253 253 252 252 252 252 252 252 251 252 252 252 252 251 252 252 252 252 252 252 253 253 254 254 254 254 254 254 254 254 255 255 255 256 257 258 258 258 259 259 260 261 262 262 262 261 261 261 260 259 258 257 257 257 257 256 256 256 255 255 254 253 253 253
252 252 252 252 252 252 252 253 252 252 252 252 252 252 252 252 252 252 252 252 251 251 251 251 251 251 251 250 251 251 251 251 251 251 251 251 251 252 251 251 251 252 252 252 253 253 253 253 253 253 253 254 254 254 255 255 256 256 257 258 258 258 258 257 259 260 261 261 261 260 259 259 258 257 257 256 256 256 255 255 255 254 253 253 252
252 252 251 251 251 252 252 251 251 251 251 251 251 250 250 250 250 250 250 250 250 250 250 249 249 249 249 249 250 250 250 250 250 250 250 251 251 250 251 250 250 250 251 251 252 252 252 252 252 252 253 253 253 253 254 254 254 255 255 256 256 256 256 256 257 259 258 259 259 259 259 258 257 257 257 256 255 255 255 253 253 252 253 251 250
251 251 251 251 251 251 251 251 250 250 250 250 249 249 249 249 249 249 249 248 248 248 248 248 248 248 248 248 248 248 249 249 249 249 249 249 250 250 250 249 249 249 250 250 250 251 251 251 251 251 252 252 252 252 253 253 253 254 254 254 255 255 255 255 255 255 256 258 258 258 257 257 257 256 256 255 255 254 254 253 252 252 251 250 249
251 250 250 250 250 250 250 249 249 249 249 249 248 248 248 248 248 248 248 247 247 247 247 248 248 247 247 248 248 248 248 248 248 249 249 249 249 249 248 248 248 248 249 249 249 250 250 250 251 251 251 251 251 252 252 253 253 253 254 254 254 254 254 254 255 254 254 255 257 257 256 255 255 254 254 254 254 253 252 252 252 251 250 250 249
Wind_Speed
11 12 10 11 12 13 12 11 12 11 11 11 11 10 10 10 10 10 8 9 8 9 10 10 10 10 11 11 11 11 11 11 10 10 10 11 11 11 10 11 12 11 10 11 9 10 11 11 11 11 9 10 8 8 9 10 9 9 9 9 10 9 9 11 11 6 3 2 6 7 7 8 7 6 6 4 3 2 0 1 1 1 1 2 3
12 11 11 10 13 12 13 11 11 11 12 12 12 11 11 11 11 10 10 9 9 10 10 9 10 11 11 11 11 12 12 12 11 11 11 11 12 8 10 11 12 12 10 11 10 8 9 10 10 9 9 10 9 9 9 9 9 10 9 9 10 9 8 9 10 9 5 5 5 6 6 8 7 7 8 7 5 4 3 2 0 1 1 1 2
8 9 9 10 12 11 11 11 11 12 13 12 13 13 12 12 10 11 10 9 9 10 10 10 10 10 10 10 10 10 11 11 10 11 11 12 12 11 10 11 12 11 11 11 10 9 9 9 10 9 5 8 9 8 8 9 8 10 10 8 9 9 8 9 8 9 6 6 6 7 7 8 8 8 6 5 4 4 4 4 2 1 1 1 2
6 7 8 9 10 11 12 11 12 13 14 13 14 14 13 12 11 12 12 10 10 9 10 10 9 10 10 10 11 10 11 11 11 11 13 13 12 12 11 11 11 11 12 11 11 10 12 10 10 9 7 9 8 8 7 8 8 8 9 8 9 9 7 8 9 8 4 7 7 7 8 8 7 6 6 4 5 5 4 3 2 2 2 1 2
7 7 8 10 10 11 12 12 12 13 14 11 14 14 14 13 11 13 12 12 12 10 10 10 11 12 11 13 13 13 14 13 13 12 11 11 11 11 11 11 11 12 12 11 11 10 11 11 10 9 9 10 9 9 8 10 9 9 9 9 9 9 7 8 9 8 6 8 7 6 7 7 6 7 8 8 7 5 4 5 5 5 4 2 2
6 7 7 9 10 11 11 11 12 13 12 11 12 11 10 10 10 9 11 12 12 12 12 11 12 13 13 13 13 12 11 11 11 11 11 10 10 10 9 10 11 11 11 11 11 11 11 12 11 10 10 11 11 10 10 11 10 10 11 10 10 9 9 9 10 9 8 7 10 8 9 10 8 8 10 9 9 8 7 5 4 4 5 5 3
6 7 8 9 9 10 10 10 9 10 10 9 7 7 8 8 8 8 6 9 8 8 9 10 8 9 10 9 9 9 8 8 8 9 8 9 9 9 9 10 9 9 9 10 9 9 10 10 10 11 12 12 12 12 11 12 10 13 12 11 10 10 10 10 10 10 10 8 7 8 9 9 9 10 10 9 8 9 10 8 8 6 6 8 6
7 8 9 9 10 10 10 10 10 10 8 8 9 9 9 9 9 8 7 8 9 7 7 7 6 6 7 7 7 7 7 8 9 9 8 9 9 9 9 9 9 9 8 9 9 9 10 10 10 11 12 12 12 11 11 10 8 10 9 8 9 9 10 9 9 10 10 9 9 9 9 10 9 6 8 9 9 9 11 11 12 11 10 8 7
6 7 8 9 10 9 9 8 8 9 9 9 10 11 10 10 10 10 10 10 8 9 9 9 9 9 9 9 10 9 9 10 8 9 9 10 9 10 10 10 9 9 9 10 10 11 10 11 11 12 12 13 14 13 11 9 7 9 9 9 9 10 10 9 9 10 10 10 8 8 9 9 10 11 12 13 16 16 13 11 10 9 9 8 7
6 6 6 6 6 6 6 6 6 7 8 8 9 8 8 9 9 9 11 11 11 11 11 11 12 13 12 12 11 9 9 8 12 16 13 9 10 9 9 10 11 10 10 10 10 11 11 10 9 13 13 14 15 16 16 14 14 11 9 10 11 10 10 10 10 11 11 11 11 11 11 11 13 14 14 15 11 9 11 13 12 11 10 8 6
6 6 7 6 5 5 6 6 5 7 7 7 7 7 8 7 7 8 8 7 8 8 9 11 11 10 11 10 10 9 8 8 15 16 15 15 11 10 10 10 10 10 10 10 10 10 10 11 11 12 14 14 15 17 17 18 17 18 17 13 12 11 11 12 11 12 12 12 11 11 12 12 13 13 13 12 12 14 12 13 12 11 13 13 13
6 6 6 5 6 6 6 7 7 8 7 8 8 7 7 7 8 8 8 9 8 7 9 9 8 8 8 9 10 9 9 12 16 19 16 15 17 11 10 10 10 11 11 12 11 11 11 11 10 9 10 13 12 12 15 18 18 18 19 19 16 17 15 13 12 12 13 12 12 13 12 13 12 13 12 12 13 12 11 12 13 14 14 14 12
5 5 4 4 5 5 5 6 7 7 8 7 7 7 8 8 9 8 10 9 7 9 10 9 10 10 10 11 11 11 10 14 18 19 16 16 18 17 10 11 11 11 11 12 12 11 10 10 9 9 8 14 12 11 11 13 17 19 19 20 20 18 16 19 17 11 9 13 13 13 14 12 12 13 14 14 13 13 12 12 13 12 12 12 12
3 4 3 4 4 4 5 5 6 6 5 5 5 6 7 9 8 7 6 6 8 9 9 10 9 9 9 10 9 9 9 10 15 15 18 17 15 15 10 10 10 11 11 11 10 12 12 10 9 9 9 11 12 12 11 12 12 13 14 14 14 17 18 19 22 20 14 10 12 13 12 13 12 11 13 14 15 15 14 13 14 12 14 13 8
3 3 3 3 3 4 4 5 6 6 5 6 6 7 8 7 7 7 7 8 8 8 8 9 8 7 8 8 8 8 7 9 12 13 12 14 14 15 10 9 9 10 10 10 11 11 11 11 11 11 10 11 10 13 12 12 12 11 12 14 14 13 14 15 15 13 12 10 10 10 7 10 10 9 12 13 15 12 12 12 13 11 7 9 9
3 3 3 3 4 4 4 5 6 5 6 6 7 8 8 8 7 6 6 6 6 6 7 7 7 8 9 8 8 10 7 9 11 13 12 13 15 11 10 11 11 11 11 11 11 11 11 11 10 11 10 10 12 17 15 10 10 11 12 12 12 12 12 13 14 14 13 11 11 10 5 5 7 9 12 13 12 8 8 8 7 8 9 7 8
3 3 4 3 4 4 4 5 5 5 6 6 7 7 6 6 6 5 6 7 7 7 7 7 6 7 8 8 9 8 6 8 12 13 13 14 11 10 10 9 10 11 11 10 10 10 10 11 10 9 10 10 11 16 18 14 9 11 12 12 11 10 11 8 9 10 10 9 6 3 4 7 9 13 17 20 14 13 9 8 8 11 9 8 6
4 4 4 4 4 4 4 5 5 5 5 6 6 5 4 4 4 4 5 6 6 6 5 5 5 6 7 8 7 7 8 7 12 13 13 14 13 10 9 9 10 10 10 10 8 8 10 11 11 9 8 8 11 17 19 14 12 12 12 12 12 12 11 5 4 4 9 9 8 8 9 10 12 15 18 20 21 16 12 11 12 10 10 9 11
4 5 5 4 4 4 4 3 4 4 5 5 4 5 4 4 3 3 4 5 5 4 4 5 5 5 5 7 6 8 8 6 10 12 13 15 13 10 9 8 9 9 8 9 8 7 8 10 15 13 10 9 14 17 20 16 12 12 12 11 11 10 6 6 6 5 5 6 6 7 6 10 10 10 11 21 21 17 11 16 9 15 17 6 9
5 5 3 3 2 2 2 2 3 3 4 4 3 3 3 3 3 4 4 4 5 5 5 5 6 5 5 6 6 7 8 7 6 10 12 13 16 10 8 8 10 9 7 7 7 7 8 7 10 16 17 14 15 18 20 22 12 9 8 9 10 9 4 9 9 6 7 6 6 5 5 5 5 4 7 10 11 8 6 9 10 14 17 12 8
5 4 3 3 3 3 3 2 2 2 2 3 3 3 2 3 3 3 3 3 3 3 4 3 4 4 4 4 4 5 5 6 5 8 10 12 14 14 8 9 7 6 6 7 7 7 5 5 4 11 18 18 18 19 20 22 19 12 10 11 13 9 7 8 8 8 6 5 5 4 4 4 4 4 5 5 5 4 5 6 9 9 15 16 11
4 4 4 4 4 4 5 4 3 2 2 2 2 2 1 1 2 2 2 2 3 3 3 3 3 4 3 3 4 4 4 5 5 6 9 12 13 16 11 9 8 6 8 8 7 6 5 3 4 8 16 18 18 19 20 20 23 13 10 13 13 14 7 7 5 6 5 5 4 3 3 4 4 4 3 3 3 6 6 2 1 3 2 1 7
4 3 4 4 4 5 4 5 4 3 3 2 2 2 2 1 1 1 2 2 2 3 3 3 3 3 3 3 3 2 2 2 4 5 7 9 12 14 16 13 11 9 9 9 8 6 3 3 4 8 15 17 18 19 19 22 19 14 16 16 16 17 9 6 8 6 5 5 5 5 5 5 5 5 5 4 4 4 4 4 4 4 5 6 7
4 4 4 5 5 5 5 5 5 4 4 3 3 2 3 2 1 1 1 1 1 1 1 1 1 2 2 2 1 1 1 2 2 3 5 7 10 12 14 16 16 11 11 12 10 9 5 3 5 11 15 16 18 18 19 19 14 17 21 20 17 15 9 7 7 7 7 7 7 6 6 5 5 5 4 4 4 5 5 6 6 6 7 6 7
4 4 5 5 5 4 4 5 5 6 6 5 4 4 3 2 1 2 1 1 1 1 1 1 1 2 2 2 2 2 2 2 2 3 4 6 8 10 12 13 15 16 12 11 10 10 9 9 10 13 15 16 18 19 18 20 23 20 20 19 15 7 8 7 7 8 12 12 10 6 5 5 5 4 6 7 7 7 7 6 7 7 7 8 8
4 5 4 4 5 5 4 5 6 6 6 5 5 5 5 4 4 4 3 3 3 2 2 2 2 2 2 2 2 2 3 2 2 3 3 4 5 8 10 11 11 11 11 9 11 13 12 11 12 15 16 15 11 9 7 7 15 18 18 15 10 6 8 8 8 10 10 9 9 10 6 6 5 6 7 8 7 6 6 6 7 6 6 7 7
4 4 4 4 4 5 6 5 4 5 6 5 5 5 5 4 4 5 4 4 4 3 4 3 3 3 2 3 3 3 2 2 2 3 3 2 3 4 4 5 7 8 7 6 6 6 6 6 5 8 8 13 15 13 11 10 9 10 10 8 8 7 7 9 10 10 10 9 9 8 7 5 6 7 7 7 7 6 6 7 7 6 6 5 7
4 4 4 4 4 4 4 5 5 4 4 4 4 5 5 5 5 6 5 5 4 4 3 3 3 3 3 3 3 3 2 2 2 3 4 4 4 4 4 4 4 4 4 4 5 5 5 6 7 7 7 7 7 6 6 5 6 6 7 5 7 7 8 9 9 5 5 4 5 6 6 7 8 8 7 6 8 6 6 7 7 7 6 7 6
3 4 4 4 4 4 4 4 4 4 4 5 6 6 5 5 5 5 6 5 4 3 2 3 2 2 2 3 3 2 3 2 3 5 5 7 6 5 5 4 4 4 5 8 6 4 3 3 4 4 5 5 5 5 5 5 5 6 7 6 6 7 7 6 8 7 7 8 8 8 9 8 8 9 9 9 8 9 8 6 5 8 6 5 6
4 5 5 4 4 4 4 4 4 4 4 3 4 6 10 10 7 5 4 9 12 13 10 6 6 4 3 3 3 1 2 4 7 7 7 7 8 9 9 10 11 9 10 12 9 5 4 3 4 4 4 5 4 5 4 4 4 5 5 6 7 8 9 9 7 6 8 7 7 8 8 8 10 10 9 10 9 8 10 9 8 8 9 8 8
4 4 5 5 5 4 4 4 4 4 4 4 3 2 2 5 10 11 11 11 12 13 13 13 13 12 7 4 6 8 4 4 6 7 9 9 8 9 9 10 10 11 11 7 6 5 4 5 5 5 4 5 5 5 5 5 6 6 5 6 6 7 9 11 11 6 6 7 7 8 8 9 9 12 11 9 10 11 10 7 6 8 8 9 8
4 4 4 4 5 5 4 4 4 4 4 4 4 4 3 2 3 8 9 10 13 13 14 14 14 13 14 12 8 6 11 11 10 8 8 8 8 9 9 10 9 10 9 11 5 4 5 5 5 5 5 5 5 5 5 5 4 4 5 6 6 7 9 10 9 7 8 8 9 8 9 9 9 8 8 8 8 10 10 10 9 7 7 6 6
6 5 5 5 5 5 4 5 4 5 5 5 5 5 4 4 3 4 4 5 7 12 14 14 14 13 14 15 15 12 11 12 14 13 9 8 9 9 10 10 9 8 9 5 5 3 4 4 5 6 6 6 7 6 6 7 5 5 6 6 7 7 8 6 8 8 8 7 8 8 9 8 8 7 6 6 8 10 11 11 11 8 6 6 5
7 6 5 4 5 5 5 5 5 5 5 4 4 4 4 4 3 4 4 4 2 3 7 12 13 12 13 15 15 15 15 15 14 13 12 12 12 12 10 6 8 8 6 2 4 3 3 3 4 5 6 6 6 6 6 6 6 5 3 3 3 3 6 6 6 6 6 7 7 8 7 7 7 8 8 8 7 6 9 11 12 13 10 8 9
5 7 10 7 5 5 4 4 4 4 4 4 3 4 4 4 3 3 4 4 4 5 5 6 8 11 9 10 14 15 15 15 14 13 14 13 14 12 8 5 4 4 4 4 4 4 4 3 3 3 4 5 6 7 7 8 7 8 6 5 4 4 4 5 5 7 8 8 7 7 7 9 9 9 9 11 10 11 9 8 10 10 10 9 8
6 5 5 7 6 5 5 4 4 4 4 4 4 3 3 3 3 3 3 2 3 3 4 5 4 6 7 10 14 13 15 15 12 12 13 14 13 11 5 5 4 4 4 4 4 4 4 4 4 4 4 4 5 6 6 7 7 6 6 6 6 6 6 6 7 9 9 9 9 8 7 7 8 8 7 7 10 11 10 10 10 9 9 9 8
5 5 5 5 5 4 4 4 4 4 4 3 3 2 2 2 2 2 2 2 2 3 3 5 5 5 4 5 11 12 13 13 11 9 12 12 13 8 5 4 5 5 5 5 6 6 5 5 5 4 5 5 5 6 6 6 6 4 4 5 6 6 7 8 8 8 9 9 10 9 8 11 10 8 9 9 9 8 8 8 8 11 11 8 9
6 6 5 5 4 4 4 4 4 4 3 3 3 3 2 3 2 3 2 3 3 3 4 4 4 4 6 7 10 8 10 10 8 6 9 10 8 6 5 5 5 5 5 5 6 6 6 6 6 6 6 6 6 6 6 6 6 5 5 5 6 7 9 9 9 7 7 9 9 10 11 10 11 11 8 8 10 9 9 8 9 9 9 11 8
5 8 10 8 5 4 3 3 3 3 3 3 3 3 3 2 3 2 3 2 2 3 2 3 3 4 5 6 6 8 8 7 6 6 6 6 5 5 5 5 5 4 5 5 6 6 5 6 6 7 7 7 7 6 6 6 6 3 4 4 5 4 7 5 7 9 6 7 9 9 11 11 11 11 12 10 9 7 8 8 8 8 9 10 10
5 4 6 8 4 4 3 3 3 3 2 2 2 2 2 2 2 2 2 2 2 2 2 2 3 3 4 5 6 6 5 5 4 5 5 6 6 6 5 5 5 5 5 5 5 5 5 5 6 6 6 7 7 7 6 6 6 3 3 4 4 6 8 8 9 9 10 11 10 9 11 11 11 11 10 8 10 8 8 9 9 9 9 9 8
3 4 4 4 4 3 3 2 2 3 2 2 2 2 2 2 2 1 2 2 2 2 2 2 2 3 3 5 8 8 3 3 4 4 4 4 4 5 5 4 4 5 5 5 5 5 4 5 5 5 5 6 6 6 7 6 5 5 5 3 3 5 6 8 8 8 9 9 9 9 9 10 9 10 10 12 9 7 7 5 5 6 6 6 7
3 3 3 2 3 2 2 2 2 2 2 2 2 2 1 2 2 2 2 2 2 2 3 3 3 3 4 8 7 8 4 3 3 4 4 4 4 3 4 4 4 4 4 5 5 5 5 5 5 5 5 5 5 5 6 6 6 5 4 5 6 6 7 7 7 6 6 7 8 9 9 9 9 8 8 7 6 6 6 7 8 7 7 8 7
3 3 3 3 3 2 2 2 3 2 2 2 2 2 2 2 2 2 2 2 3 3 3 3 3 3 3 5 5 6 3 3 3 3 3 4 4 4 4 4 4 5 5 5 5 5 5 5 6 6 5 5 5 5 5 5 6 5 5 5 5 5 6 6 6 5 6 6 8 8 7 5 7 6 5 6 5 6 6 7 8 8 7 7 7
3 3 3 3 3 2 3 3 3 3 2 3 3 3 3 3 3 3 3 3 3 3 3 3 3 3 3 3 3 3 2 3 2 3 3 4 4 4 4 4 5 5 5 5 5 5 5 6 6 6 6 6 6 6 6 6 5 5 6 6 5 5 6 6 7 8 7 8 9 9 8 7 6 8 7 5 8 10 9 9 9 8 8 7 7
3 3 3 3 3 3 3 3 3 3 3 3 3 3 3 3 3 3 3 3 3 3 4 4 4 3 3 3 3 3 3 3 3 4 4 4 4 4 4 4 5 5 5 5 5 5 5 6 6 6 6 6 6 6 6 6 5 6 6 6 6 6 6 7 8 7 6 7 7 7 8 8 9 9 9 10 10 11 10 10 9 10 10 6 8
3 4 3 4 3 3 3 3 3 3 3 3 3 3 3 3 3 4 3 4 4 4 4 4 4 4 4 4 4 4 4 4 4 4 4 4 4 4 4 5 5 5 5 5 5 5 5 5 6 6 6 6 6 6 6 6 6 5 6 6 6 7 6 6 5 3 4 5 5 6 6 7 9 9 10 10 8 8 7 6 7 8 8 9 10
4 4 4 4 3 4 4 4 3 4 4 3 4 4 4 4 4 4 4 4 5 5 5 4 3 4 3 4 5 5 4 4 4 4 5 5 4 4 4 4 5 5 5 5 5 5 5 6 6 6 6 6 7 7 7 6 6 6 5 5 5 6 6 5 5 5 4 5 5 5 6 6 7 6 9 8 5 8 8 7 11 11 8 8 9
4 4 4 4 4 4 4 4 4 5 4 4 4 4 4 4 4 4 4 4 4 4 4 4 4 4 5 5 5 4 4 4 4 4 5 5 4 4 4 4 5 5 5 6 5 5 5 5 6 6 6 6 6 6 6 6 6 6 6 5 5 5 6 7 5 5 6 6 7 5 8 7 6 6 6 9 9 7 10 10 9 6 7 10 5
5 5 5 5 5 5 5 5 5 4 4 4 5 5 4 5 5 4 4 4 4 4 4 5 5 4 5 5 4 4 4 5 4 5 4 5 5 4 5 5 5 5 5 5 5 5 5 5 5 6 6 6 6 6 6 6 6 7 6 6 6 10 9 7 6 6 5 4 5 3 4 4 5 8 10 9 7 8 7 4 6 8 7 6 6
5 5 5 5 6 5 5 5 5 5 5 4 4 5 4 4 5 4 4 4 4 5 4 4 5 5 5 5 5 4 4 4 4 4 5 5 4 4 4 5 5 5 5 5 5 5 5 5 6 5 5 5 6 6 6 6 6 6 6 7 11 11 11 10 9 8 4 5 5 5 6 6 7 7 4 9 8 9 9 8 8 6 8 8 9
6 6 6 6 6 6 5 5 5 5 4 4 5 5 5 5 5 4 4 5 5 5 4 4 5 5 5 5 5 5 5 5 5 5 4 4 4 4 4 5 5 5 5 5 6 5 5 5 5 6 5 6 6 6 6 6 6 6 9 13 14 12 11 9 6 6 7 7 5 5 6 6 7 7 7 8 8 9 8 10 10 9 8 8 8
Wind_Direction
214 216 210 212 209 211 211 210 216 217 220 220 222 220 216 218 220 220 213 212 191 194 195 195 192 192 189 192 192 191 193 194 193 195 199 204 206 206 200 194 205 211 210 205 198 204 212 215 215 208 198 201 206 203 205 202 200 207 207 209 217 212 212 225 228 207 122 111 153 157 159 161 172 188 180 176 178 163 342 43 335 3 24 84 81
211 210 208 208 207 209 209 207 207 210 214 217 219 218 216 217 218 214 216 215 197 203 201 198 197 194 194 194 193 194 195 195 192 195 200 202 206 200 201 199 206 212 208 212 200 201 208 220 221 210 199 205 207 206 202 196 197 204 206 208 213 213 202 214 226 226 163 150 156 144 154 177 180 175 187 179 175 164 167 155 169 8 44 117 124
215 212 211 209 210 208 209 208 203 203 207 213 215 214 215 217 212 212 215 213 202 204 203 201 199 198 199 197 197 199 198 198 197 198 203 203 205 202 203 202 205 208 208 213 206 197 208 219 223 210 179 206 215 215 204 202 199 205 209 205 213 214 202 208 220 229 168 169 164 161 175 180 196 176 183 181 162 169 164 164 166 129 28 26 123
237 226 222 221 214 211 210 210 208 206 208 210 212 210 210 211 206 210 211 206 205 202 204 206 199 198 201 199 200 200 200 201 200 203 206 204 206 206 201 204 207 210 211 210 203 198 207 213 220 208 188 210 217 215 210 205 204 208 209 211 211 214 206 199 216 234 163 158 179 180 178 171 190 163 168 154 160 169 181 154 127 154 157 126 119
238 236 230 228 219 215 215 212 213 212 214 212 214 210 209 207 204 205 202 205 204 196 199 199 199 199 201 201 200 202 201 199 202 203 205 205 206 205 201 203 208 212 214 213 209 203 206 213 213 199 190 207 213 212 205 201 206 206 209 209 207 207 201 198 207 215 185 178 155 174 167 177 174 165 171 168 167 172 167 173 177 175 165 126 113
239 238 234 232 230 224 222 218 219 218 219 222 222 219 218 218 218 212 206 207 202 201 199 196 199 204 204 206 204 205 202 202 204 205 203 203 207 210 208 207 210 212 214 216 211 207 209 212 211 201 198 204 213 208 204 203 202 208 209 209 204 198 201 198 202 205 196 185 156 159 176 176 172 181 180 181 173 173 174 176 172 183 173 168 162
225 227 232 233 238 234 228 230 228 227 226 227 227 226 225 228 232 233 229 230 226 218 213 208 207 212 214 213 212 210 205 206 210 212 208 205 208 211 213 214 214 216 219 218 215 214 214 216 213 208 206 207 210 208 202 203 204 209 207 207 203 195 199 199 198 200 199 178 167 170 168 184 178 175 177 185 189 185 179 173 189 189 193 186 169
217 217 218 223 226 228 226 224 225 225 224 221 221 220 219 217 219 223 220 223 230 231 221 221 221 215 227 219 218 213 209 210 214 212 209 205 206 211 212 213 215 217 217 218 218 218 218 217 217 215 214 212 212 215 206 206 204 212 211 205 203 197 203 201 196 198 199 193 180 174 177 172 176 175 156 174 187 202 202 190 186 181 187 188 184
225 222 222 226 225 225 226 222 220 217 217 220 221 220 216 216 212 209 209 212 210 214 213 208 212 211 212 212 209 204 205 209 200 198 199 204 202 207 208 211 212 215 216 218 219 220 221 221 221 221 218 222 222 226 225 212 200 211 210 200 205 201 205 203 199 197 203 200 188 169 169 177 182 169 175 188 196 198 186 186 194 178 173 173 180
239 235 238 241 245 242 238 240 238 239 234 229 228 225 221 218 215 214 214 210 207 207 205 205 208 210 205 208 207 202 209 209 211 207 204 201 200 202 206 212 213 216 216 219 220 220 222 223 224 224 229 226 227 228 232 229 223 222 208 194 201 201 202 204 202 201 202 203 197 175 183 191 186 189 189 198 192 178 174 184 187 173 163 177 181
224 231 236 233 233 233 235 241 233 235 237 236 232 224 225 219 220 222 222 218 217 214 209 214 213 212 211 207 208 210 214 217 215 211 207 208 208 208 208 211 210 214 216 217 221 217 218 219 225 217 219 225 224 226 227 229 228 227 231 225 211 198 194 202 208 199 202 208 201 188 195 195 194 190 194 185 184 190 184 183 179 168 177 177 195
228 229 228 229 230 231 228 224 222 228 224 229 230 228 228 225 224 221 217 216 215 211 217 221 220 215 214 214 216 216 218 216 211 213 201 197 206 212 209 207 204 209 212 214 217 216 213 212 214 212 211 214 217 220 224 227 226 226 227 230 229 225 219 206 201 202 205 209 207 202 195 201 189 183 188 178 185 186 188 181 185 183 184 195 195
243 243 234 236 239 233 234 232 231 227 222 219 217 214 219 223 224 218 217 215 205 208 216 212 215 214 210 215 219 218 222 212 211 208 197 196 202 208 217 210 208 210 210 211 214 214 213 212 211 206 207 204 211 218 215 219 223 225 228 231 234 230 229 232 234 229 205 211 213 209 199 196 189 194 185 181 173 179 180 185 194 193 197 200 202
260 270 267 258 253 247 244 241 243 239 230 224 223 224 225 226 225 221 219 213 216 224 221 221 221 217 215 219 227 230 231 218 212 207 213 211 200 201 223 216 215 218 214 211 212 214 214 213 211 210 204 200 208 210 211 216 214 216 223 225 228 229 229 233 233 236 237 231 222 222 204 187 199 180 176 168 170 181 183 192 191 191 196 204 189
265 264 265 258 251 246 240 237 240 237 230 223 221 226 226 228 220 218 214 216 215 218 218 219 222 218 220 222 231 236 234 221 211 206 204 207 205 207 225 225 223 222 221 217 215 214 214 216 217 217 205 196 200 199 205 209 211 213 215 219 222 222 220 220 221 223 224 224 234 237 220 188 197 162 162 174 183 183 188 187 183 179 147 90 80
286 281 273 261 253 245 241 243 240 236 231 225 226 228 223 222 220 213 213 223 225 224 229 224 223 221 223 222 226 239 240 213 217 216 210 212 212 220 225 229 229 227 224 220 218 219 217 216 216 216 211 202 197 196 202 201 206 214 216 219 222 222 224 222 217 220 222 221 221 224 220 171 163 150 166 171 175 148 115 108 107 124 135 160 165
327 315 297 292 277 261 251 250 250 245 239 237 239 236 231 227 224 212 217 225 225 222 225 226 224 226 224 220 227 240 245 211 213 218 215 211 208 226 229 234 236 233 232 225 220 219 215 214 215 214 213 213 186 187 202 198 207 215 220 221 222 223 228 213 176 196 208 216 215 181 135 149 164 163 168 171 169 156 142 147 174 160 152 171 166
349 327 311 306 297 283 268 261 263 260 251 251 253 250 239 241 234 215 224 232 234 233 228 232 229 225 226 228 223 235 243 213 206 217 218 210 214 224 231 232 236 236 237 230 223 221 217 208 213 219 213 212 182 192 201 194 214 219 221 223 227 227 224 170 144 211 220 224 222 213 213 209 197 182 179 178 173 160 159 182 170 155 179 178 171
350 331 319 316 312 301 290 275 269 267 264 259 258 259 249 240 228 208 221 228 243 243 233 241 243 235 229 237 222 230 246 226 201 214 212 216 216 228 232 238 239 237 236 238 231 224 226 212 214 220 219 206 187 200 202 198 209 212 212 216 222 224 204 132 178 181 183 189 204 194 206 205 198 187 186 184 181 182 188 157 145 170 167 155 127
324 315 315 326 336 340 329 299 283 279 278 278 275 263 265 250 236 229 227 225 221 219 214 221 232 237 228 225 233 230 240 245 210 206 217 219 218 224 232 236 241 243 237 240 239 228 218 215 211 215 220 216 210 208 206 203 202 199 193 212 223 228 127 177 199 180 193 188 187 176 179 176 163 158 170 185 190 176 174 170 171 156 159 171 163
323 329 355 20 28 26 19 9 334 323 311 304 298 283 269 261 252 234 240 241 242 251 244 243 245 248 241 236 237 238 235 247 237 208 222 223 222 223 234 235 241 243 246 243 240 241 219 206 209 201 215 221 219 216 213 212 210 212 211 222 225 235 184 183 194 171 180 167 163 159 159 153 158 163 167 170 166 156 164 174 184 178 168 166 175
337 356 21 30 27 26 25 18 14 360 351 325 292 281 299 289 272 257 253 245 240 243 249 250 254 256 254 241 240 246 230 213 251 222 225 231 231 229 234 240 236 250 256 256 250 243 229 203 200 199 212 222 224 221 219 219 220 218 215 217 221 224 179 172 150 165 160 160 154 145 145 150 151 158 156 138 121 145 127 92 143 224 285 271 178
350 14 25 30 28 24 24 20 16 11 5 5 344 344 353 360 321 306 271 261 248 251 242 242 245 249 249 242 237 237 250 231 219 240 237 239 242 242 240 245 246 243 253 257 256 256 231 210 188 185 212 221 226 226 225 224 225 226 222 215 216 213 178 155 142 147 149 141 149 157 160 158 159 159 152 139 133 111 103 90 68 79 69 54 33
360 26 31 26 21 21 16 17 18 16 11 5 21 23 22 9 13 11 336 272 260 242 249 224 243 247 251 256 247 250 250 269 252 247 266 259 259 258 257 256 255 254 257 263 267 269 255 207 199 202 215 223 228 231 231 228 227 229 231 222 203 198 151 155 153 160 136 151 167 166 162 165 149 153 138 118 109 94 86 80 75 75 84 73 65
23 31 28 23 19 10 21 28 22 18 12 15 16 16 18 8 26 22 23 360 354 316 310 325 307 299 310 300 309 321 320 322 297 291 274 282 278 275 273 273 269 267 264 262 261 262 259 243 221 212 216 222 229 233 235 234 234 234 231 223 198 169 160 156 156 155 178 186 185 166 162 163 155 107 104 110 111 95 91 75 74 73 79 78 69
32 31 24 28 17 5 22 36 37 27 22 26 25 21 15 16 27 21 27 23 21 13 354 357 341 341 331 325 330 332 345 325 311 308 306 293 288 284 283 284 288 291 290 285 294 298 298 279 230 218 217 219 226 229 232 226 232 233 233 221 196 172 159 160 162 178 189 192 185 191 167 151 132 113 120 125 122 137 125 119 117 114 111 110 97
40 30 26 22 22 25 38 28 26 33 28 31 36 32 27 29 40 35 31 24 22 24 18 9 5 2 357 347 346 339 335 328 324 316 314 313 305 304 308 301 297 297 289 289 295 293 298 289 225 212 211 214 218 222 227 227 228 228 232 218 195 175 167 164 169 175 185 191 190 181 164 127 101 122 144 146 142 139 140 132 127 136 127 121 117
47 40 34 32 33 31 38 32 34 42 32 36 36 35 36 42 47 46 36 23 19 10 17 11 16 1 357 342 342 343 326 334 335 330 328 323 318 314 305 301 299 294 294 295 298 295 287 272 250 235 231 232 233 229 227 220 216 216 221 206 186 172 176 174 173 169 163 144 131 107 114 141 153 161 148 146 155 148 147 142 141 136 136 130 121
49 48 37 40 36 29 38 31 33 35 42 51 55 47 38 38 58 57 46 39 18 17 30 25 22 14 11 350 352 341 326 342 330 334 314 304 302 300 301 300 300 294 290 293 295 285 273 257 251 238 228 222 219 219 212 208 207 210 204 194 168 159 160 158 175 172 168 155 157 156 160 162 160 161 157 157 164 162 165 135 135 130 144 147 147
50 43 40 38 31 25 31 34 27 33 33 42 69 73 66 62 50 58 39 41 46 45 50 41 31 28 30 351 10 77 329 326 331 333 323 318 311 306 302 300 294 291 287 284 280 258 248 234 234 227 217 215 206 213 204 203 192 199 196 180 158 164 176 182 174 163 165 160 148 145 156 157 166 169 164 168 167 166 173 159 157 154 152 168 165
55 51 48 45 33 40 35 33 29 33 33 28 30 60 80 60 61 52 44 46 44 39 36 33 32 35 40 15 356 20 359 341 355 6 4 352 341 329 327 321 319 316 314 302 284 253 211 220 223 225 218 225 216 219 213 212 213 205 196 189 165 173 176 185 188 158 153 150 158 158 160 167 169 178 175 172 167 169 170 171 151 166 169 171 170
57 55 49 43 48 43 50 43 30 33 28 30 29 20 19 44 45 55 54 45 41 41 37 30 28 31 31 29 22 358 6 13 14 8 360 350 338 332 323 318 314 308 298 298 291 256 230 214 218 217 213 214 225 224 224 219 211 199 187 183 179 187 182 186 179 158 166 159 164 167 171 172 170 169 165 157 156 165 166 170 175 172 175 178 175
50 47 42 50 54 49 40 41 36 38 32 28 26 26 31 17 16 347 10 61 66 48 37 30 25 26 25 21 17 14 8 4 9 7 353 346 339 333 322 322 313 308 303 297 288 260 237 222 221 223 217 214 223 219 219 222 212 200 195 195 191 190 196 190 177 172 175 166 166 170 172 168 164 158 148 145 154 170 176 175 183 178 168 169 168
49 43 32 33 45 49 48 46 46 43 46 40 39 36 31 36 16 354 351 349 3 37 35 29 24 21 15 15 12 8 6 3 2 3 3 358 348 337 335 332 326 327 345 1 334 334 283 240 238 233 228 230 223 220 216 213 208 199 190 190 180 172 187 172 158 165 168 171 178 175 169 164 156 154 157 162 171 155 169 179 181 183 184 182 179
51 49 41 38 46 43 38 40 40 45 42 41 33 36 34 21 22 19 16 8 357 354 346 353 6 16 18 9 7 4 4 1 3 9 7 4 3 358 3 340 355 352 4 1 2 346 329 296 266 253 250 241 232 223 218 213 201 206 197 188 178 157 155 170 164 169 180 181 174 177 174 171 174 173 167 171 174 185 182 172 183 181 179 179 175
39 44 34 32 30 32 33 31 31 32 38 34 37 38 33 32 23 23 11 15 1 346 333 340 340 331 2 10 6 1 359 356 359 9 15 11 10 9 23 353 358 347 352 345 353 345 332 313 293 273 263 256 250 244 235 220 205 194 196 180 176 170 171 174 181 185 185 185 189 173 167 176 177 168 170 175 179 180 178 177 179 180 177 174 173
36 34 36 30 29 33 30 33 31 27 28 39 29 26 21 33 23 16 18 9 7 346 347 335 342 343 354 8 359 350 352 348 348 4 19 13 16 26 18 9 353 344 349 351 354 341 335 322 311 292 277 264 253 245 239 230 218 192 183 185 182 177 181 185 181 181 180 185 191 185 178 192 189 179 177 176 185 184 183 177 179 186 189 176 166
36 35 27 21 24 32 37 38 29 23 25 23 20 21 18 21 22 16 18 15 357 354 354 352 355 360 350 342 352 347 343 333 341 358 10 11 15 13 7 1 356 358 347 349 350 347 340 331 328 317 298 284 269 260 252 240 230 205 190 192 192 206 200 198 190 172 170 186 188 191 189 193 195 194 191 181 185 184 184 180 174 173 180 183 183
35 33 31 27 29 26 32 25 18 17 19 19 13 23 7 16 8 14 5 358 352 350 351 344 352 351 348 342 342 337 353 350 2 357 354 357 2 360 356 354 351 356 344 347 346 347 344 340 339 340 331 320 306 286 265 248 240 215 203 194 201 192 192 189 187 195 178 184 188 189 189 197 197 196 200 194 193 183 178 171 173 168 168 175 189
15 14 13 15 16 15 21 17 11 12 9 8 1 3 15 2 5 360 342 347 333 335 328 335 336 341 341 349 341 346 357 343 349 345 342 342 348 351 353 351 347 347 341 339 341 343 341 338 340 338 332 327 325 319 306 284 262 233 201 205 194 205 207 202 200 197 197 198 194 193 195 195 200 201 198 194 202 189 171 175 180 176 175 174 175
360 1 355 2 6 356 356 357 10 356 353 343 334 349 345 344 335 323 319 317 312 305 306 310 311 316 337 334 340 345 342 328 327 338 328 332 331 337 341 344 340 339 335 337 331 335 332 330 329 328 328 328 326 325 319 312 299 275 249 225 204 200 206 211 206 206 204 199 197 196 193 193 191 190 193 203 192 166 172 164 157 164 165 157 159
344 336 339 336 341 341 338 338 339 335 310 308 319 319 327 317 315 303 308 302 299 301 298 295 302 301 320 328 341 342 341 314 329 325 321 326 326 326 331 335 334 338 332 332 329 328 325 323 317 316 316 320 325 322 321 316 305 292 268 248 233 226 220 217 210 196 183 187 198 198 198 195 190 191 190 183 160 160 153 165 172 173 174 174 168
330 313 318 321 321 321 323 312 314 310 304 314 305 310 300 293 287 293 289 285 293 291 286 288 290 301 302 313 334 331 322 313 319 315 319 321 322 324 325 327 332 332 330 325 323 322 319 318 316 311 317 320 320 317 317 310 308 308 290 264 245 236 229 224 219 195 205 194 200 194 184 179 188 187 170 177 158 157 162 162 166 175 175 168 168
310 312 311 306 300 289 294 290 294 298 300 295 290 289 284 284 280 282 276 278 280 279 279 282 287 297 298 308 319 311 308 306 308 304 314 309 315 317 317 320 326 330 323 323 319 326 323 314 310 312 314 312 312 315 311 305 305 296 288 281 264 246 235 226 216 210 198 199 207 203 195 183 169 185 181 167 176 187 187 185 185 175 168 176 166
308 308 304 297 292 291 283 290 282 278 288 283 273 275 276 266 280 280 282 278 280 276 278 279 286 287 292 297 299 303 294 297 295 296 296 304 306 309 315 318 320 324 319 315 318 326 321 314 312 312 311 310 313 315 309 309 308 306 299 289 279 262 246 233 229 220 194 189 192 184 184 186 185 189 188 187 186 190 191 186 178 179 185 173 168
307 300 292 289 291 290 290 285 285 281 278 275 278 275 276 276 266 267 270 274 276 278 278 283 282 284 284 289 289 290 293 292 293 296 294 300 303 306 308 315 316 314 311 312 315 317 315 316 312 311 312 311 313 313 313 310 303 300 299 298 291 286 279 265 244 206 187 190 185 181 177 178 190 195 188 184 180 181 178 164 166 177 179 172 181
294 286 286 282 284 282 281 280 275 276 270 268 268 270 272 271 272 271 267 262 271 278 281 276 276 276 277 282 290 291 294 297 295 300 297 294 295 298 304 312 314 309 305 309 312 308 310 312 314 311 310 310 310 309 307 308 307 303 302 300 297 298 295 293 270 234 210 200 192 187 185 183 182 183 185 184 177 186 190 177 187 187 181 176 180
271 275 275 274 274 270 268 269 269 269 267 267 267 273 272 270 270 268 268 270 269 270 270 271 272 276 286 286 289 288 292 290 292 288 292 294 295 304 308 307 305 310 308 306 302 305 308 308 309 311 306 305 306 306 305 306 306 305 301 297 298 294 317 330 299 277 245 228 216 202 205 199 186 178 172 184 190 177 189 194 187 182 182 189 173
264 261 264 268 264 265 270 275 267 271 265 273 272 265 261 267 267 264 267 269 273 269 270 276 279 279 279 276 279 282 281 281 279 282 283 287 292 294 299 301 304 304 303 297 304 305 306 304 306 306 305 301 300 301 300 297 297 300 298 295 296 302 297 280 274 270 270 251 225 198 200 189 183 195 197 194 189 190 185 146 160 169 170 150 147
258 257 258 259 261 262 267 267 264 267 269 266 265 265 268 265 267 263 263 266 270 270 269 270 275 277 280 279 279 276 280 279 279 279 282 280 284 286 290 295 298 297 298 299 302 303 304 304 305 303 304 300 297 297 296 295 292 293 294 293 297 298 295 285 259 264 252 231 225 211 208 206 206 193 170 193 193 184 190 182 174 170 171 168 174
255 256 256 254 259 263 260 262 261 262 259 262 262 265 265 266 266 269 273 272 272 274 276 274 279 281 274 270 270 273 273 275 275 274 274 277 278 287 290 292 298 300 302 299 298 301 306 309 303 305 305 307 301 298 295 295 291 289 289 291 290 287 284 277 266 241 238 242 224 212 198 196 190 186 184 189 189 187 184 179 179 178 174 180 170